Lid_Strength_Index
6 6 7 7 7 8 8 8 7 7 7 6 6 5 5 4 5 5 5 5 6 4
6 7 6 8 7 7 8 8 8 7 8 6 6 7 6 5 5 4 4 4 4 5
7 7 7 7 9 9 8 8 8 8 8 8 7 7 7 7 7 6 6 5 5 5
6 7 8 7 8 9 9 9 8 8 8 8 7 8 8 8 8 8 7 7 7 6
7 8 8 8 8 9 9 9 8 8 8 8 8 9 9 10 9 9 8 8 8 8
10 10 10 9 8 8 8 9 9 9 9 8 7 9 10 10 10 9 8 8 9 8
9 9 9 10 10 10 10 10 10 10 9 9 9 10 10 9 10 9 8 7 7 7
9 8 9 9 9 9 10 10 10 10 10 10 10 10 11 10 11 10 9 8 7 6
8 8 9 9 10 10 10 11 11 11 10 11 10 10 11 11 11 11 10 10 10 8
9 9 9 10 10 11 11 11 11 11 10 10 10 10 10 10 11 11 11 11 11 10
9 9 11 11 12 12 11 12 12 11 10 10 10 9 10 10 11 11 11 10 11 11
9 10 10 13 13 14 12 11 11 10 10 10 10 9 9 10 11 11 12 11 10 10
9 10 11 11 11 11 10 11 11 11 10 10 10 9 9 9 11 11 11 11 10 9
10 9 9 10 10 10 11 11 11 11 11 10 9 9 8 8 9 10 10 10 9 9